Location: Corocito
(10.1894°N, 67.0986°W)
Time: 10:13:38
(UTC+00:00)

Cosmos 1076 Rocket - Pass Details

Date: 29 May 2024
Orbit: 585 x 608 km, 82.5° (Epoch: 16 June)

Event Time Altitude Azimuth Distance (km) Brightness Sun altitude
Rises 23:04:58 0° 358° (N) 2,820 7.3 -5.1°
Reaches altitude 10° 23:07:10 10° 0° (N) 1,923 6.4 -5.6°
Maximum altitude 23:11:24 75° 86° (E) 620 3.4 -6.6°
Drops below altitude 10° 23:15:41 10° 172° (S) 1,939 5.8 -7.5°
Sets 23:17:54 0° 173° (S) 2,845 6.7 -8.0°
